RH
72 70 69 62 58 66 73 66 60 55 53 51 45 36 28 25 23 21 19 18 17 16 16 16 16 17 17 17 17 17 18 17 17 18 19 19 18 17 17 22 29 34 33 28 26 28 28 28 26 25 23 22 21 20 19 18 18 18 18 19 20 21 23 24 22 19 15 15 15 14 15 17 19 21 21 21 20 20 20 19 18 19 21 24 25
74 71 69 58 54 58 59 55 50 46 46 43 37 31 27 25 22 20 19 18 18 17 17 17 17 18 18 17 18 18 18 18 19 20 21 20 18 17 16 19 26 32 33 30 28 28 28 27 26 24 22 21 20 20 19 19 18 18 18 18 19 20 22 24 23 19 16 17 16 15 15 15 17 19 19 19 19 18 19 19 18 19 21 24 27
75 72 66 54 48 48 47 46 43 42 41 38 33 30 27 24 21 20 19 19 18 17 17 17 17 17 17 17 18 18 19 19 21 24 24 22 20 18 18 23 29 32 32 31 30 29 29 27 26 24 23 23 22 21 21 20 20 20 20 19 20 21 23 25 24 19 17 18 17 16 16 16 17 18 18 18 20 19 19 20 19 20 23 26 33
72 70 60 49 43 42 39 39 39 39 37 34 31 28 25 22 20 19 19 18 17 17 17 17 17 16 16 17 16 18 20 21 25 27 27 25 22 20 20 24 28 29 28 29 29 29 28 27 26 25 25 25 25 24 23 23 22 22 21 20 19 20 23 25 23 18 18 22 21 18 17 18 18 18 18 18 20 20 21 21 21 23 26 33 42
68 67 56 47 41 38 35 34 34 34 32 30 27 24 22 20 18 18 18 17 17 17 17 17 16 15 15 15 15 17 19 22 27 29 29 28 24 21 21 22 23 23 23 26 27 27 26 27 27 27 28 29 29 27 26 25 24 23 21 19 17 18 21 24 20 16 23 28 25 21 18 18 18 18 19 19 19 20 21 22 24 28 34 43 50
64 61 52 47 42 37 32 28 28 28 27 25 23 21 19 18 18 18 18 17 17 17 17 17 15 15 14 14 15 16 19 23 27 30 30 28 26 24 23 23 23 23 23 23 24 24 24 25 25 26 27 28 31 31 30 28 25 23 20 18 16 16 17 20 17 18 31 34 28 22 19 18 18 19 19 20 20 21 24 26 30 36 44 48 49
57 53 48 46 42 35 27 23 23 23 22 20 18 17 17 18 19 19 20 19 18 18 17 16 15 14 13 14 15 17 19 23 27 30 31 30 29 28 28 28 28 29 28 28 29 28 28 29 30 30 29 28 29 30 32 32 31 26 22 18 15 14 15 17 15 22 39 39 31 23 18 19 18 19 20 21 24 27 29 33 38 43 46 46 44
45 43 42 42 37 29 21 17 18 18 17 17 16 16 18 20 22 22 21 20 18 17 16 15 14 13 13 14 15 17 19 23 28 31 33 33 33 33 33 33 33 32 32 32 33 33 34 35 35 35 34 33 31 31 31 33 34 31 27 20 16 13 13 15 15 24 39 40 33 23 18 19 19 20 21 24 27 31 34 37 42 45 43 42 41
37 35 33 32 30 21 14 13 15 15 15 15 15 17 20 24 24 24 22 19 17 15 15 14 13 12 12 14 16 18 20 24 28 31 33 34 35 35 34 34 33 32 31 30 30 31 33 35 38 39 38 36 35 35 36 36 35 34 31 24 18 14 13 14 18 29 38 37 32 23 19 19 19 20 21 25 28 31 36 37 38 40 39 40 39
33 30 25 22 22 17 11 12 14 14 16 16 17 21 24 27 26 25 21 17 14 13 13 12 11 11 12 15 17 19 22 26 30 32 32 33 33 32 33 33 33 32 33 33 32 33 35 39 43 44 41 38 38 39 41 40 39 37 34 29 22 17 16 15 21 32 35 34 31 24 21 20 20 20 21 24 26 29 32 34 34 34 36 37 37
29 25 20 16 15 13 11 12 14 16 17 18 21 25 28 28 27 25 21 15 12 11 11 11 10 11 13 15 18 21 25 30 33 33 31 31 32 34 35 36 37 36 36 37 37 37 39 42 45 46 44 41 41 42 42 42 41 40 37 33 27 22 20 21 28 35 35 33 31 27 24 22 21 20 21 24 24 25 27 29 30 29 30 31 32
23 21 19 14 12 12 12 14 16 17 18 21 25 28 29 29 29 26 20 14 9 9 9 9 10 12 14 17 19 23 29 36 37 34 32 34 36 38 39 41 41 41 40 39 38 39 40 44 47 48 47 44 42 42 42 42 41 41 39 35 31 26 22 25 31 34 34 35 33 29 27 24 23 21 21 24 23 23 23 25 27 26 26 26 28
20 17 15 12 12 13 14 16 17 19 21 24 27 29 30 31 31 27 19 12 9 8 9 9 10 13 15 17 20 26 35 39 35 33 34 36 38 38 39 41 43 44 43 41 39 39 40 43 45 45 45 44 43 44 45 45 45 44 43 40 38 34 26 22 25 29 33 35 33 31 29 26 23 22 22 23 22 22 22 23 24 25 25 25 26
21 14 11 12 13 15 17 19 19 20 23 26 28 29 30 33 33 28 20 14 11 10 10 11 12 14 17 19 22 31 38 36 33 34 36 37 36 34 33 34 37 39 38 37 36 35 36 37 37 34 34 35 37 41 44 47 48 47 49 51 51 50 42 29 24 28 32 31 30 32 31 28 22 19 21 22 22 21 21 22 22 24 24 25 25
21 14 11 13 15 17 20 20 21 21 24 27 28 29 30 33 34 29 23 18 16 15 16 16 16 18 19 22 27 33 34 31 32 34 35 34 31 27 24 24 25 26 26 26 26 26 26 26 25 23 21 22 24 27 31 35 37 40 45 51 56 61 59 46 32 28 31 31 27 24 23 23 22 20 20 20 20 20 21 22 22 22 22 23 24
22 15 12 15 17 18 21 21 22 23 25 28 27 28 30 32 34 32 29 26 24 23 23 23 23 24 25 28 31 32 29 28 29 30 29 27 24 20 17 16 14 14 14 15 15 14 14 14 13 12 11 11 12 14 15 17 20 23 30 38 47 56 63 61 48 35 33 36 30 20 17 16 17 19 20 19 18 19 20 21 21 21 21 22 23
24 16 13 15 18 19 21 22 23 24 25 26 26 27 29 29 33 35 34 33 32 31 30 30 31 31 31 31 30 27 25 25 25 24 22 19 16 14 13 13 12 10 9 9 9 8 8 8 7 7 7 7 7 8 9 12 13 14 21 28 34 42 55 65 60 46 38 39 35 29 28 24 19 16 16 18 17 17 18 18 19 19 20 21 22
25 19 16 15 18 19 19 22 23 23 24 24 25 26 26 28 33 36 36 36 36 35 33 33 33 32 29 26 24 23 22 21 18 16 14 12 10 9 10 11 10 8 8 8 8 9 9 8 8 7 6 7 7 7 8 11 12 14 21 25 28 32 41 55 61 56 48 41 37 36 38 38 34 27 20 15 14 16 16 17 18 18 19 20 20
29 21 17 17 17 19 18 22 23 22 22 22 24 24 23 26 32 35 35 36 35 33 31 30 27 23 21 19 20 20 17 14 10 9 8 7 7 7 8 7 8 8 8 9 9 11 14 15 14 12 9 7 7 8 8 9 9 14 23 22 22 26 29 39 50 55 53 49 46 45 43 43 44 42 36 25 16 14 14 15 16 17 18 18 19
30 19 17 18 16 17 18 22 22 20 21 22 23 22 21 23 29 33 33 33 31 28 24 23 21 18 18 18 18 16 12 8 6 6 5 6 6 6 6 6 7 7 8 8 11 13 17 21 20 19 16 10 7 8 8 9 8 12 20 20 17 18 21 25 31 37 42 47 52 54 54 54 52 50 48 41 29 20 14 13 13 14 15 15 16
25 17 17 17 15 17 19 21 20 19 20 22 23 20 18 21 25 28 29 27 23 20 19 20 19 18 18 16 14 10 7 5 4 5 5 5 5 6 6 7 7 7 7 9 12 15 17 22 20 18 18 12 9 10 9 10 9 9 14 19 17 12 12 15 20 26 32 39 47 52 57 62 62 58 55 51 44 34 24 17 14 14 14 15 16
21 18 18 15 14 17 20 20 18 18 20 22 22 18 16 18 20 22 22 18 15 14 16 18 17 17 14 10 8 5 5 4 4 5 5 5 5 6 6 7 8 8 8 10 14 14 15 22 18 12 14 11 10 10 9 9 9 9 10 12 13 10 9 9 13 21 28 35 41 47 51 56 62 63 60 56 52 46 37 27 20 18 17 17 17
18 18 18 13 13 17 20 19 16 17 20 22 20 16 14 14 15 16 14 10 9 11 12 12 11 9 7 5 5 4 4 3 4 4 5 6 7 9 12 13 13 13 15 18 19 14 12 16 15 14 14 9 8 9 8 9 8 8 9 8 9 9 11 10 9 14 21 27 34 42 47 51 55 58 58 57 55 50 44 34 25 22 20 20 20
14 15 16 13 13 18 20 16 13 15 18 19 16 13 12 11 11 10 8 6 7 8 10 14 14 10 9 10 8 6 6 6 9 11 11 11 12 17 23 23 18 15 17 20 19 13 9 13 18 19 16 9 7 7 7 9 9 9 8 8 8 8 10 11 8 9 13 17 23 32 38 46 51 52 53 53 56 55 51 43 34 29 27 26 27
13 12 14 13 12 18 19 13 10 9 13 15 12 10 9 8 8 7 5 5 7 7 10 18 25 23 18 13 9 10 12 15 19 21 23 24 24 24 26 26 21 19 21 23 23 16 10 14 21 20 15 15 12 7 6 7 8 9 9 8 8 8 9 9 8 7 8 10 15 22 28 34 41 46 48 49 51 54 55 52 47 45 43 43 41
13 10 11 14 13 18 18 11 7 5 6 10 10 8 7 6 6 5 4 5 7 8 9 12 19 21 19 18 19 22 24 28 28 27 32 35 32 25 23 25 25 27 27 29 35 28 16 17 22 17 14 17 14 7 6 7 7 9 9 8 9 9 9 8 8 7 7 7 9 15 20 23 26 33 38 41 43 46 49 51 52 53 53 51 49
13 10 9 16 16 17 17 9 6 4 3 7 9 7 5 5 5 5 4 5 6 7 8 9 10 13 20 27 28 26 31 35 30 28 33 32 27 22 21 24 26 24 24 34 43 36 23 23 23 17 14 13 11 8 6 7 6 7 8 8 8 9 9 8 8 8 7 7 7 9 13 16 18 22 26 29 31 33 36 38 40 42 43 41 38
13 14 11 17 18 18 17 9 5 5 3 5 7 6 4 5 5 5 5 5 7 7 8 8 7 9 13 19 20 19 27 37 32 27 27 26 23 23 22 23 24 21 28 41 42 34 27 31 33 27 19 10 8 8 5 6 6 6 8 8 8 8 9 9 9 9 8 7 7 8 9 11 13 16 19 20 20 20 21 23 25 27 27 25 24
13 16 15 17 19 20 17 8 6 5 3 4 5 5 4 5 5 5 5 5 7 9 8 6 6 6 6 9 13 13 24 37 34 25 24 25 23 23 23 23 23 23 31 37 34 30 27 34 39 34 27 18 16 14 6 5 6 6 6 7 8 8 8 8 9 9 10 9 8 8 8 8 9 10 11 13 13 12 12 12 14 16 16 19 22
11 15 17 18 19 22 18 9 7 6 4 4 5 5 5 5 6 5 6 6 7 8 7 6 5 5 5 6 9 13 23 29 23 18 21 24 24 23 24 24 23 25 30 33 34 33 29 31 28 27 31 31 32 22 9 7 6 5 6 6 7 7 8 8 8 9 9 10 9 8 8 7 7 7 7 8 8 7 8 8 10 12 13 19 27
12 14 17 19 19 21 19 10 7 7 4 4 4 5 6 6 7 5 6 6 7 8 6 5 4 5 5 5 8 14 20 19 14 14 17 19 22 23 22 22 22 26 30 31 33 35 40 39 26 31 42 42 40 25 12 12 8 7 6 5 7 7 8 8 8 8 8 9 10 10 9 8 7 6 7 7 6 5 6 7 12 18 22 30 37
13 13 14 17 19 20 19 10 7 7 4 4 5 5 6 7 7 6 6 6 6 6 5 5 4 5 5 5 7 11 13 13 13 16 18 18 19 21 22 23 26 30 31 31 32 34 43 45 32 39 48 44 40 26 18 20 14 12 8 5 7 6 7 8 8 8 8 8 8 11 12 10 8 7 7 7 7 6 6 7 11 19 26 35 42
17 13 11 15 17 17 19 11 6 7 4 4 5 6 7 8 8 7 6 6 5 5 5 5 5 5 5 5 6 8 8 10 13 16 19 18 17 22 26 27 30 34 34 34 36 35 37 43 36 37 40 32 29 26 26 28 22 20 14 9 8 6 6 7 7 8 8 8 7 8 11 13 12 9 8 7 8 8 8 9 11 15 19 25 29
20 14 11 14 15 15 17 12 6 6 6 4 5 6 8 9 10 9 7 5 4 4 4 4 4 5 5 5 5 6 8 10 13 17 22 23 21 24 26 29 32 34 35 35 38 38 37 43 41 38 39 33 29 30 33 37 37 34 25 18 13 8 6 5 7 8 7 8 8 7 8 11 13 12 9 8 8 8 9 10 11 13 14 15 16
23 15 12 13 14 14 16 12 6 6 7 6 6 7 10 11 10 8 6 4 3 3 3 4 4 5 5 5 6 7 9 9 12 16 23 27 24 24 26 30 34 34 36 33 32 39 41 44 45 44 44 41 38 36 36 41 46 48 44 33 22 14 9 6 6 6 7 7 7 8 8 8 10 11 10 9 9 9 10 11 10 11 11 11 11
25 17 12 13 13 13 15 11 6 6 7 8 8 9 10 10 9 6 4 3 4 4 3 4 4 5 5 6 6 7 8 9 10 14 21 26 26 27 30 31 35 37 36 30 27 34 42 45 44 44 46 46 45 44 44 46 47 51 54 50 38 26 16 10 7 6 6 6 7 8 7 8 8 9 10 10 10 10 9 10 10 10 10 10 10
25 17 12 13 13 13 14 9 5 5 7 9 9 9 9 8 6 4 4 4 5 5 5 5 4 5 5 6 6 7 7 9 10 13 17 21 24 27 30 33 36 36 30 25 25 31 41 45 42 42 45 46 47 49 51 50 49 48 51 54 50 41 30 20 12 8 6 5 9 11 8 7 8 8 9 9 9 10 9 9 10 9 9 9 9
25 15 12 12 12 12 13 8 5 5 6 8 8 7 7 5 4 4 4 5 6 6 6 6 5 5 6 6 6 6 8 9 10 11 14 19 24 26 29 35 37 33 25 23 28 34 40 43 40 39 40 42 46 50 50 48 48 47 48 52 53 52 47 36 24 16 10 6 9 13 8 6 7 7 8 8 8 8 9 8 8 9 8 8 9
23 14 11 12 12 12 11 7 4 5 5 6 6 6 6 5 5 5 5 6 6 7 7 7 6 5 6 6 6 7 8 9 10 11 15 20 25 27 29 35 38 32 22 22 28 32 34 34 32 31 31 34 39 46 50 49 46 45 48 50 51 53 51 46 37 26 16 10 9 9 6 5 6 6 7 7 7 7 7 8 8 8 8 8 9
20 12 11 12 12 12 10 7 4 4 4 5 5 5 6 6 7 7 6 6 6 7 7 7 7 6 6 6 6 7 8 9 10 11 14 17 22 26 30 37 37 28 19 22 24 25 26 25 22 21 21 23 27 34 42 46 46 45 46 47 47 47 44 43 40 32 24 17 12 9 7 7 6 6 7 6 7 7 7 7 7 7 8 8 8
18 11 10 12 11 10 9 7 4 4 4 4 5 5 6 7 7 7 6 6 6 6 7 7 7 6 6 6 6 8 8 9 10 11 13 15 19 24 28 35 35 23 15 19 21 19 20 18 16 16 14 15 16 19 23 28 31 33 34 33 32 29 29 31 32 31 29 25 20 15 12 12 10 8 8 7 7 6 6 6 6 7 7 7 8
19 11 10 11 10 9 7 6 5 4 4 4 5 5 7 7 6 7 6 6 6 6 7 7 7 6 6 6 7 8 8 9 9 10 13 14 17 22 28 32 31 20 12 16 17 15 15 15 14 14 13 13 13 13 14 14 14 15 15 15 14 12 13 17 21 26 30 29 27 24 21 20 17 13 10 9 7 6 6 6 6 7 7 8 9
17 10 9 11 10 8 5 5 5 4 4 4 5 5 6 6 6 7 7 6 5 6 6 7 7 6 6 6 7 8 8 8 9 10 11 12 14 19 25 27 24 17 11 13 15 13 12 13 13 13 14 13 13 14 14 13 12 12 11 10 9 7 7 9 12 18 25 27 26 25 25 25 21 17 13 10 8 7 7 6 7 7 8 9 9
13 9 9 11 10 7 5 4 4 4 4 3 4 4 4 5 6 6 7 7 5 5 6 7 7 6 6 6 7 7 8 7 8 8 9 10 11 14 18 21 22 16 10 10 12 12 12 12 12 13 14 14 14 14 14 14 14 13 13 12 10 9 8 8 8 10 14 17 17 16 16 17 15 14 12 9 8 7 7 7 8 8 9 10 10
9 9 9 10 10 8 5 4 4 3 3 3 3 3 3 4 5 5 7 7 7 6 6 6 6 6 5 6 7 7 7 7 7 7 8 9 10 11 14 18 23 20 11 8 10 10 11 13 13 13 14 14 13 13 13 13 13 13 13 12 11 11 10 10 9 8 7 8 10 10 9 9 9 9 9 8 7 7 8 8 9 9 10 10 11
8 8 9 11 9 7 5 3 3 3 2 3 2 2 3 3 4 5 6 7 7 6 6 5 5 6 5 6 7 7 7 7 6 7 8 8 9 9 10 14 20 21 14 8 8 9 11 12 13 14 14 14 13 13 13 12 12 11 11 11 11 11 11 10 10 10 9 8 8 8 7 7 7 7 7 7 7 7 8 8 9 10 11 11 12
10 8 9 10 9 7 5 4 2 3 2 2 2 2 2 3 3 4 6 6 6 6 5 5 5 5 6 6 6 6 6 7 7 7 7 8 8 9 9 9 13 17 15 10 8 8 10 12 12 14 14 14 14 15 14 14 13 13 12 12 11 11 11 11 11 11 10 10 10 9 9 9 8 7 7 7 7 8 8 9 10 11 12 12 13
12 9 9 10 11 8 6 5 3 3 3 2 2 2 2 2 3 4 5 6 6 6 5 6 6 5 5 6 6 6 6 6 7 7 7 8 8 10 10 9 10 12 12 12 10 8 9 12 12 13 13 15 16 17 18 18 18 18 18 18 17 16 15 15 14 13 13 12 12 11 11 11 10 9 9 10 10 10 11 12 13 13 13 13 14
11 9 10 10 11 9 7 5 4 3 3 3 2 3 3 3 3 4 5 6 5 5 6 6 6 5 5 5 6 6 6 6 7 7 7 7 8 10 11 12 11 10 10 11 11 9 8 10 12 12 13 15 17 18 20 21 21 22 24 26 26 25 23 20 19 18 18 18 17 16 15 14 13 12 11 11 12 12 13 13 14 14 14 15 15
10 10 9 9 11 10 7 6 5 4 3 3 3 3 3 3 3 4 4 5 5 5 5 5 5 5 4 5 5 5 6 6 7 7 7 8 8 9 12 14 13 11 11 10 10 10 9 8 10 12 14 16 17 19 20 21 21 22 24 26 28 29 28 25 22 21 20 19 19 19 19 18 18 17 14 14 14 13 13 13 13 15 16 16 15
9 9 8 8 10 10 9 6 5 5 4 4 4 4 4 3 3 3 3 4 4 4 4 4 4 4 4 4 5 5 5 6 7 7 8 8 9 10 12 15 15 14 13 11 10 10 10 9 9 11 13 15 18 19 21 21 21 23 24 25 26 28 29 29 27 25 24 23 21 20 19 18 18 18 17 17 16 16 15 15 16 17 16 16 14
Wind_Speed
16 16 13 11 11 11 11 11 10 10 11 11 11 10 9 9 8 8 7 7 7 7 7 7 8 8 8 8 8 7 7 7 7 6 7 7 7 8 8 8 9 8 8 8 9 9 9 8 8 7 7 7 7 7 6 5 5 4 3 2 3 3 3 3 4 4 4 5 5 4 4 4 3 3 2 1 1 2 3 4 5 5 5 5 5
13 13 11 11 11 11 11 11 11 11 11 11 11 10 9 8 8 7 7 7 7 7 7 8 8 8 8 8 8 7 7 7 7 6 6 7 7 8 8 8 9 9 9 9 8 8 8 7 7 7 6 6 6 5 5 4 4 3 2 2 2 3 4 4 4 4 4 5 5 5 5 5 4 4 3 2 2 3 3 4 5 5 5 5 5
12 10 11 11 12 11 12 12 11 11 11 11 10 9 9 8 8 7 7 8 7 7 7 8 8 8 8 8 8 7 7 7 7 6 6 7 7 8 8 8 9 9 9 8 8 7 6 6 6 6 6 6 5 5 4 3 3 2 2 2 3 4 4 4 5 4 5 6 6 6 6 6 5 5 4 3 3 4 5 5 6 7 7 6 6
11 10 11 11 12 12 12 12 11 11 11 10 10 9 9 8 7 7 7 7 7 7 8 8 8 8 8 8 8 8 7 7 7 7 7 7 8 8 8 8 9 9 9 8 7 6 5 5 5 5 5 5 5 4 4 4 3 3 3 3 4 4 5 5 5 5 6 7 7 6 6 6 6 6 5 5 5 5 6 7 8 8 8 8 7
11 11 11 11 12 12 12 11 11 10 10 10 10 9 8 7 7 7 7 7 7 7 8 8 8 8 8 8 8 8 8 8 7 7 8 8 8 8 8 8 8 8 8 8 7 6 6 5 5 5 5 5 5 4 4 4 4 4 4 4 4 5 6 6 6 6 7 7 7 7 7 7 7 7 7 7 7 8 8 9 9 9 9 9 8
12 12 10 11 11 11 11 10 10 10 9 9 9 9 8 7 7 7 6 6 7 7 8 8 8 9 9 9 9 9 8 8 8 8 9 9 9 8 8 8 8 8 8 8 8 7 7 7 7 6 6 6 5 4 4 4 4 4 4 4 5 6 7 7 7 7 8 8 8 8 8 8 8 8 8 9 10 10 10 10 10 9 9 9 8
12 11 11 11 10 9 9 8 9 9 9 9 8 8 7 7 7 6 6 6 7 8 8 9 9 9 10 10 10 10 9 9 9 9 10 10 10 9 9 9 8 8 9 9 8 8 8 8 8 8 7 6 5 4 3 3 3 4 5 5 5 6 7 7 7 7 9 9 9 8 8 9 10 9 10 10 11 11 11 11 10 9 9 9 8
11 11 10 10 9 8 7 8 8 8 8 8 7 7 7 7 7 6 6 6 7 8 9 9 10 10 10 10 10 10 10 10 10 11 11 10 10 10 10 9 9 9 9 9 9 9 9 9 9 8 8 7 5 4 3 4 4 5 5 5 5 5 7 7 6 7 8 9 8 8 9 10 10 10 10 11 12 12 11 11 11 10 9 8 8
10 10 10 9 8 8 7 8 8 8 7 7 7 7 7 7 7 6 6 7 8 9 9 10 10 11 11 11 11 11 11 11 11 11 11 11 10 10 10 9 9 9 10 10 10 10 10 10 9 9 8 7 6 5 4 5 5 5 6 6 5 6 7 7 7 8 8 8 8 8 9 10 10 10 11 11 12 12 11 11 11 10 8 7 7
9 9 8 8 8 7 7 8 8 7 7 7 7 7 7 8 7 7 7 7 8 9 10 10 11 11 11 11 11 11 11 11 11 11 11 10 10 10 10 9 10 10 10 10 10 11 10 10 10 10 9 8 7 7 6 6 6 5 6 6 5 6 7 8 7 8 8 7 8 8 9 9 10 10 11 11 12 12 12 11 11 10 8 7 6
9 8 7 7 7 7 7 8 7 7 7 7 7 7 8 8 8 7 7 8 9 10 11 11 12 12 12 12 12 12 11 11 11 10 10 10 10 10 10 10 10 10 10 10 10 10 10 10 10 11 11 10 10 9 8 8 7 7 7 6 6 6 7 8 7 8 8 7 7 7 8 8 9 9 10 10 11 11 11 11 10 9 8 6 5
8 8 7 7 7 7 7 8 7 8 7 7 7 7 8 8 8 7 8 9 10 11 11 12 13 13 13 13 13 12 12 11 11 10 10 10 10 10 10 11 11 11 11 11 11 10 10 10 11 11 12 12 11 10 10 9 9 8 8 7 6 6 7 7 8 8 8 7 7 7 7 7 8 8 8 9 9 10 10 9 8 7 6 5 4
8 7 7 6 7 7 7 7 8 8 8 8 8 8 8 8 8 8 9 11 11 12 12 13 13 14 14 14 13 13 12 11 11 11 11 11 11 11 11 11 12 12 12 12 12 11 11 11 12 12 12 12 12 11 11 10 9 9 8 8 7 6 7 7 8 8 8 8 7 7 6 6 7 7 6 7 8 8 8 7 7 6 4 3 3
8 7 7 7 7 7 6 7 8 8 8 9 8 8 9 9 9 10 11 12 12 12 13 13 14 14 15 14 14 13 12 11 12 13 13 13 12 12 12 13 14 14 14 14 14 14 13 13 13 13 14 14 13 13 11 10 9 9 8 7 7 6 6 6 7 8 8 8 7 6 5 5 6 6 5 5 6 6 6 5 5 4 3 2 2
8 7 7 7 7 7 6 6 8 9 9 9 9 9 9 10 10 11 12 13 13 13 13 14 14 15 15 14 14 13 13 13 14 14 14 14 13 13 14 15 15 16 16 16 16 15 15 15 14 14 15 15 15 14 13 11 9 9 9 7 7 7 6 6 7 8 8 8 7 6 5 5 5 5 4 4 4 4 4 3 3 3 2 1 2
7 7 7 7 6 6 6 6 8 9 10 9 9 10 10 10 11 12 13 13 13 13 14 14 14 15 15 15 14 14 14 15 15 15 14 14 14 15 16 16 16 17 17 17 17 16 16 16 15 15 15 15 15 15 14 13 12 12 11 9 9 8 8 6 6 7 8 8 7 7 7 6 5 4 4 3 3 3 3 3 2 2 1 1 2
7 7 7 7 6 6 6 6 8 9 10 9 9 10 11 11 12 13 14 14 14 14 14 14 15 15 15 15 15 16 16 16 16 15 15 15 15 16 16 16 16 16 17 17 16 16 16 16 15 14 14 15 15 14 14 14 13 13 13 13 12 11 10 8 7 7 7 6 7 7 7 7 7 5 4 4 3 3 2 2 2 1 0 1 2
7 7 7 7 7 6 6 7 8 10 10 10 10 10 11 12 13 14 14 14 14 14 14 14 15 15 16 16 17 17 17 17 16 16 17 16 16 16 16 15 15 16 17 16 16 15 16 15 15 14 14 14 14 13 13 13 14 13 13 15 15 14 12 11 9 7 6 6 6 5 5 6 6 6 5 4 3 3 3 2 2 1 0 1 2
8 7 7 7 7 6 6 7 9 10 10 11 11 11 11 12 13 14 14 14 14 14 14 15 16 16 17 17 18 18 18 17 18 18 17 17 16 16 15 14 15 16 16 16 15 15 15 15 15 14 14 14 14 13 12 12 13 13 14 15 16 16 15 13 12 9 7 6 5 5 4 4 4 4 5 5 4 3 3 3 2 1 1 1 2
8 8 8 7 7 7 7 8 9 10 11 11 11 11 11 12 14 15 14 15 15 15 15 16 17 17 18 18 18 19 19 18 18 18 17 16 16 15 15 15 15 15 15 15 15 15 15 15 15 15 14 14 14 13 13 12 13 14 14 13 14 15 15 14 13 12 10 8 6 5 5 4 3 3 4 5 4 4 3 3 2 1 0 1 2
8 8 8 7 7 7 7 9 9 10 11 11 11 11 11 12 14 15 15 15 16 16 17 18 18 19 19 19 19 19 19 19 18 17 16 15 15 15 15 15 15 15 15 15 15 14 15 15 15 14 14 14 14 14 13 13 13 14 13 11 12 13 14 14 14 13 12 10 8 7 6 6 4 3 3 4 4 4 4 4 3 3 3 3 3
9 8 8 7 7 8 8 9 10 11 11 11 11 11 11 12 14 16 16 16 17 18 18 19 19 19 19 19 19 18 18 18 17 16 15 15 15 15 16 16 15 15 14 14 14 14 14 14 14 14 14 14 14 14 14 14 13 14 13 12 12 12 12 14 14 14 13 12 10 9 8 7 6 5 4 3 4 4 4 5 5 5 5 5 5
8 8 8 7 8 8 9 10 10 11 11 11 11 11 11 13 15 16 17 18 18 19 20 20 20 20 19 18 18 17 17 17 16 16 15 15 15 15 15 15 14 14 13 13 14 14 13 13 13 13 13 13 12 13 14 14 13 13 14 13 12 12 12 13 12 13 13 12 12 11 11 9 8 6 5 4 4 4 4 5 6 6 6 5 5
7 7 7 7 8 9 9 10 10 11 11 11 11 11 12 13 15 17 18 19 19 20 20 19 19 19 18 17 15 15 16 16 16 15 15 15 15 15 14 14 14 13 13 13 13 13 13 12 12 12 12 12 11 12 13 14 13 13 13 13 12 12 12 12 11 11 12 12 12 12 12 11 10 8 7 6 5 5 5 5 5 5 5 5 5
7 7 6 7 8 9 10 10 10 11 11 11 11 12 13 14 16 18 19 18 18 18 18 17 16 16 16 15 14 14 14 15 15 14 14 14 14 14 13 13 13 12 12 12 12 12 12 12 11 12 12 12 11 11 12 12 13 13 12 12 13 12 12 11 11 11 11 11 12 12 13 12 11 10 8 7 6 6 5 4 4 5 4 4 4
7 7 7 6 7 9 10 10 11 11 11 11 12 12 14 15 16 18 18 17 17 17 16 15 15 15 15 14 13 12 13 13 14 13 13 13 13 13 12 12 12 11 11 11 11 11 12 11 11 11 11 12 11 11 11 11 13 13 12 12 13 13 12 12 12 11 11 11 12 12 12 12 11 10 9 8 7 6 6 5 4 5 4 3 3
7 6 6 7 7 9 10 10 11 11 11 12 13 13 14 15 16 17 17 16 16 15 14 14 14 14 13 12 11 11 12 12 12 12 12 12 12 12 12 11 11 10 10 10 10 10 10 11 10 9 10 11 11 11 10 11 12 12 11 11 13 13 13 13 13 12 12 11 11 11 11 11 10 10 10 9 8 7 7 6 6 6 5 5 5
6 6 6 6 7 9 9 10 11 11 12 13 13 14 15 15 16 16 16 15 14 13 13 12 13 13 12 11 11 12 11 11 11 12 12 11 11 11 12 11 10 10 10 10 9 8 9 10 8 9 10 10 11 10 10 11 11 11 12 11 12 14 13 14 14 13 12 12 12 11 11 11 10 10 10 9 8 8 8 7 7 7 7 7 8
6 7 6 6 8 9 9 10 11 11 12 13 14 15 15 15 15 15 15 14 13 12 11 11 11 11 11 11 11 12 11 10 11 11 11 11 10 11 12 11 10 10 10 10 8 8 10 9 8 9 9 10 11 10 9 10 10 11 13 12 11 12 13 13 14 13 13 13 12 12 11 11 11 10 10 10 9 9 9 9 9 9 10 10 10
5 6 6 6 8 9 9 10 11 11 13 14 15 15 15 15 15 15 14 13 13 12 11 10 10 11 10 10 11 11 10 10 11 11 11 10 10 11 11 10 10 9 10 9 9 9 9 9 9 9 10 11 11 10 9 9 9 10 12 12 10 11 12 12 12 13 13 14 13 12 12 11 11 10 10 11 10 10 11 11 11 11 11 12 12
5 6 6 6 8 9 10 10 11 12 13 15 15 15 15 15 15 14 14 13 12 11 10 9 10 10 9 10 11 10 10 10 11 11 11 10 10 11 10 10 10 9 10 9 9 10 9 9 10 10 11 12 11 10 10 9 9 9 10 12 10 8 10 10 10 12 12 13 13 13 12 11 11 10 10 11 11 11 12 13 13 12 12 12 11
5 6 7 6 7 10 10 10 11 12 14 15 16 16 15 15 15 14 13 12 11 10 9 8 9 8 8 9 10 10 10 11 11 11 10 10 11 11 10 10 10 10 10 10 9 9 9 9 11 11 10 10 10 10 10 8 8 7 8 10 10 7 7 9 9 10 11 11 12 12 13 12 11 11 11 11 11 12 13 13 12 12 11 11 10
6 6 7 6 7 10 11 11 11 13 14 15 16 16 16 15 14 13 13 12 11 10 8 8 8 8 7 8 9 10 10 10 10 10 10 10 10 10 9 9 10 10 11 10 9 9 10 10 11 10 9 9 9 10 9 8 7 7 7 9 10 7 6 7 7 8 8 9 10 11 13 12 11 12 12 12 12 12 12 12 12 11 11 11 11
7 7 8 7 7 10 12 12 12 13 14 15 16 16 16 15 14 12 12 11 11 10 8 7 7 7 7 8 9 10 10 10 10 9 9 9 10 10 9 10 10 11 10 10 9 10 10 10 9 9 9 8 9 8 7 7 7 7 8 8 9 7 4 5 6 6 6 7 8 9 11 11 11 11 11 12 12 12 12 12 12 11 11 12 12
8 8 9 9 8 11 13 13 13 14 15 16 17 17 16 15 14 12 11 11 10 9 8 7 7 7 8 8 8 9 9 9 9 9 9 9 9 10 9 10 10 10 9 9 9 9 8 8 8 9 9 9 8 8 7 6 6 7 7 8 8 7 4 4 5 5 5 6 6 7 8 8 9 10 11 11 11 11 11 11 11 12 12 12 12
11 10 10 10 10 12 14 14 14 14 15 16 17 17 16 15 13 12 11 10 10 9 8 8 7 8 8 9 8 8 9 9 9 8 9 8 8 9 9 9 9 9 9 9 9 9 8 9 9 10 11 10 10 9 8 7 7 6 7 8 8 8 6 4 4 4 4 4 5 6 6 6 7 8 9 9 9 10 10 11 11 11 11 11 12
13 12 12 12 11 13 14 14 15 15 16 17 17 17 16 15 13 11 10 9 9 9 8 8 8 8 8 9 9 8 8 8 8 8 9 8 8 9 9 9 9 9 10 10 11 10 10 10 11 12 12 12 12 12 11 10 8 7 8 8 9 9 8 6 5 4 4 3 4 5 4 5 6 7 7 6 7 8 8 8 9 9 9 10 10
15 14 14 13 13 14 15 15 16 16 17 17 17 16 15 14 13 11 10 9 9 9 8 8 8 8 9 9 9 8 8 8 8 8 9 8 8 9 8 8 10 11 11 12 12 11 11 11 12 13 14 14 14 14 14 14 12 10 10 10 10 10 9 8 7 5 4 3 3 3 4 4 4 5 5 4 5 6 6 6 7 7 8 8 9
17 16 15 14 14 15 16 16 18 17 17 17 16 15 14 13 12 11 10 10 9 9 9 9 9 9 9 9 8 8 8 8 8 9 9 9 8 8 8 9 11 12 12 12 12 11 11 12 13 14 15 15 16 16 16 16 15 13 12 11 11 11 9 9 8 7 6 5 3 3 4 3 3 4 4 4 4 4 5 5 6 6 7 7 7
18 17 16 15 15 17 17 17 18 18 17 17 16 15 13 13 12 11 10 10 9 9 9 9 9 9 9 9 8 8 8 8 8 8 9 8 8 8 9 10 11 12 12 12 12 11 11 13 14 15 15 16 16 16 16 15 15 14 13 13 12 11 10 10 10 9 9 7 6 6 5 4 4 4 4 4 4 4 4 5 5 5 6 6 6
17 16 17 17 17 18 19 19 19 19 18 18 18 16 15 14 13 12 11 10 10 10 9 9 10 10 10 9 9 8 8 8 8 8 8 8 8 8 9 10 11 12 13 13 12 11 12 13 14 14 15 15 15 16 15 15 15 15 14 13 13 12 11 11 11 11 10 9 9 8 7 7 6 5 5 5 4 4 5 5 5 5 6 6 6
17 17 18 18 18 20 20 21 21 20 19 19 19 18 16 15 13 12 11 11 10 10 10 10 11 11 11 10 9 8 8 8 8 7 7 8 8 9 9 9 10 12 13 13 12 12 12 12 13 13 14 14 14 14 14 14 14 15 14 13 13 13 13 13 12 12 11 10 10 9 8 8 9 8 7 6 6 5 5 6 5 5 6 6 6
18 18 19 19 19 20 21 21 22 22 21 20 18 17 16 15 13 11 11 11 11 11 11 12 12 12 12 11 10 9 8 8 7 7 7 7 7 8 8 8 9 12 12 11 12 12 11 11 12 12 13 14 14 14 13 13 13 13 14 13 13 13 14 14 14 14 13 11 11 11 10 9 9 9 8 8 7 7 6 6 6 5 6 5 6
17 18 19 19 19 21 22 22 23 23 22 21 19 17 15 14 12 11 11 11 12 12 12 13 13 13 12 11 10 9 8 8 7 7 7 6 7 7 8 8 9 11 11 10 11 11 11 11 11 11 12 12 12 12 12 12 12 12 13 12 12 13 13 13 13 13 13 12 12 12 12 11 10 10 10 9 8 7 6 6 5 5 5 5 5
16 19 20 20 21 22 23 24 24 23 23 21 19 17 15 14 13 12 11 12 13 13 14 14 14 13 12 11 10 9 8 8 7 6 6 6 6 7 7 8 8 9 10 10 11 11 10 10 9 9 10 11 10 10 10 10 10 11 11 12 12 12 12 12 11 11 11 11 10 10 10 11 11 10 9 8 7 7 6 5 5 5 6 6 6
15 19 21 21 22 23 24 24 24 23 23 21 19 18 16 15 14 14 14 14 15 15 14 14 13 12 11 11 11 10 9 8 7 7 6 5 5 6 6 6 7 8 9 10 10 10 10 9 9 8 9 10 10 9 9 8 8 9 10 10 11 11 11 11 11 10 10 10 9 9 9 8 8 8 7 7 6 6 5 5 5 6 6 6 6
16 20 22 21 21 23 23 23 23 23 22 20 19 17 16 16 15 15 15 15 15 14 13 12 12 12 12 13 12 11 10 8 7 7 6 5 4 4 5 5 5 6 8 9 10 9 10 9 8 8 9 9 9 10 10 9 10 10 10 10 10 10 10 10 10 10 9 9 8 9 9 8 8 8 7 6 5 5 5 5 6 6 7 7 7
17 20 21 21 20 22 23 23 23 22 21 19 18 17 17 16 16 16 16 15 13 12 11 11 12 13 13 13 13 11 10 8 7 7 6 5 4 4 4 4 4 5 6 8 8 9 9 8 8 8 8 9 9 9 10 10 11 11 11 11 11 11 10 10 10 10 10 9 9 9 8 7 7 7 6 5 5 5 5 5 6 7 7 8 7
17 19 21 22 21 21 22 23 22 22 20 18 17 17 17 17 17 17 16 14 12 11 11 12 13 13 13 13 12 10 9 7 7 6 6 5 4 3 3 4 4 5 5 6 6 7 8 7 7 7 7 7 8 9 9 10 11 11 12 11 11 11 11 11 11 11 11 11 11 11 10 9 9 7 6 5 6 5 5 6 6 7 7 6 5
17 19 21 22 21 20 21 22 22 21 20 18 17 16 17 16 16 16 15 13 11 11 11 12 13 13 12 11 10 9 8 8 7 6 5 4 3 2 3 3 4 5 5 5 5 6 6 6 6 6 6 6 6 8 8 9 10 10 11 10 10 11 11 11 11 12 12 12 12 12 12 11 11 10 9 8 8 7 6 6 6 7 6 5 5
17 18 19 20 20 20 20 21 21 21 19 18 17 16 16 16 16 16 15 13 11 10 11 12 12 11 10 8 8 8 8 8 8 6 5 3 2 1 2 3 4 4 5 5 4 5 5 5 4 4 4 5 5 6 7 7 8 9 9 9 9 10 10 11 11 11 11 11 12 12 11 11 11 10 10 9 8 7 6 6 6 6 6 6 6
Wind_Direction
121 120 115 110 114 123 128 126 126 127 127 128 129 130 128 124 120 118 124 134 138 139 137 134 131 126 120 113 110 109 108 104 101 99 99 103 105 107 107 104 101 98 96 93 91 91 93 97 101 106 110 111 112 112 111 112 113 109 100 81 59 41 27 21 20 25 28 27 32 49 72 93 101 105 119 141 186 200 194 196 198 193 184 175 166
122 119 114 112 116 124 128 127 128 129 129 130 130 130 128 127 125 129 137 140 140 138 138 136 132 127 122 118 117 116 111 106 103 99 100 102 103 106 106 102 99 96 95 95 94 95 98 104 108 110 111 109 109 109 109 107 105 98 81 55 34 26 20 16 21 31 36 34 42 57 69 82 93 100 112 127 157 173 172 179 176 170 165 157 147
122 116 113 115 119 124 126 126 129 130 131 130 131 132 132 131 132 139 143 138 136 137 139 138 134 129 124 122 120 115 109 106 101 98 99 100 102 103 103 101 98 97 96 95 96 99 104 106 107 106 103 100 98 97 96 92 86 76 56 25 17 20 21 26 31 41 43 38 46 58 68 76 85 95 105 112 129 146 149 157 156 153 149 144 138
117 112 112 115 120 124 124 126 128 130 131 132 134 135 132 133 139 143 138 132 134 140 142 139 135 130 125 122 117 113 109 104 99 97 98 99 100 100 99 98 96 94 92 94 96 98 100 99 97 95 91 87 81 78 72 67 61 50 41 26 25 30 36 46 51 58 50 43 48 56 64 70 78 89 94 97 104 115 125 135 140 140 138 137 138
112 110 112 115 120 122 121 123 128 130 132 135 134 132 133 137 141 137 130 131 139 143 143 139 134 129 125 121 118 113 108 102 99 98 98 98 97 96 95 94 92 89 89 89 89 87 85 82 76 72 69 65 61 56 52 52 52 49 46 38 36 38 46 58 70 72 55 48 53 57 61 65 70 79 84 87 91 98 109 120 126 129 129 131 130
114 112 111 115 118 119 119 122 126 128 130 132 130 131 135 138 135 128 127 134 141 144 142 138 132 128 126 123 120 115 109 104 100 97 95 95 94 93 92 89 87 85 85 83 81 79 74 69 63 58 54 50 48 44 44 47 53 59 57 50 44 43 50 61 76 72 56 55 56 56 62 64 66 70 77 84 89 95 102 109 115 119 119 120 116
117 114 113 116 117 117 117 119 121 123 127 128 129 132 132 130 124 119 124 135 142 143 140 135 131 130 128 125 121 116 113 108 101 95 92 91 92 91 89 87 85 83 82 81 80 77 72 67 62 58 55 51 49 47 50 52 55 64 65 59 51 51 58 65 76 69 59 62 57 58 66 66 67 70 77 84 90 95 99 103 107 110 109 108 105
118 118 118 120 120 120 116 115 117 120 123 125 127 125 123 119 114 115 126 138 141 139 135 132 132 130 126 124 122 118 114 107 99 94 92 91 90 90 88 87 85 85 83 82 81 79 74 69 64 60 57 56 54 53 55 56 53 60 66 64 54 54 66 74 77 69 63 66 60 64 72 70 72 76 82 87 91 94 97 101 104 107 105 101 96
120 121 121 124 125 121 114 113 115 118 119 121 121 118 116 112 111 119 129 135 134 133 132 131 131 128 125 124 121 117 110 103 97 93 92 91 90 89 88 88 87 85 83 83 81 78 75 70 65 61 59 58 58 56 56 58 57 61 70 71 60 50 62 73 72 68 68 72 70 72 75 75 78 81 84 87 89 92 94 98 100 102 101 95 87
122 122 121 124 124 117 110 112 113 114 116 117 115 115 113 110 113 117 122 125 126 127 129 130 129 127 125 123 118 111 105 99 96 94 93 92 91 89 88 87 85 83 82 81 80 78 76 72 67 64 63 62 64 64 64 68 71 73 75 77 72 60 63 70 70 71 75 80 81 80 82 82 82 83 85 89 90 92 94 96 97 98 98 93 84
123 121 119 120 117 113 111 113 114 115 115 116 114 114 110 108 110 112 117 119 120 124 127 129 128 126 124 120 113 107 102 99 97 96 94 92 89 86 84 82 81 80 81 81 81 82 81 77 72 69 68 68 70 71 73 75 79 79 79 81 78 71 69 74 77 81 83 85 86 85 89 89 87 87 88 93 95 94 95 98 99 99 98 96 89
123 121 118 117 114 112 114 117 118 118 117 115 113 110 106 106 108 111 116 116 118 121 125 127 125 124 122 117 111 106 103 102 101 98 95 91 87 84 81 80 81 83 85 87 88 89 88 83 77 74 73 74 77 78 78 77 79 80 81 84 85 80 77 81 85 90 92 92 94 93 97 97 94 95 95 99 99 98 99 101 102 99 97 94 88
123 121 119 116 114 113 117 123 121 119 118 113 110 107 105 106 109 114 115 113 115 118 121 123 122 122 120 116 111 108 106 104 100 96 92 90 88 85 84 85 87 90 92 94 96 96 92 87 83 80 80 80 81 81 79 76 75 78 79 82 88 90 88 87 88 97 101 98 97 98 104 108 108 109 106 105 104 104 104 106 105 102 96 89 78
125 121 120 118 115 116 121 126 123 120 115 110 109 108 108 109 112 116 114 112 112 115 118 119 120 120 118 115 111 109 107 101 96 94 93 92 92 90 90 91 93 95 97 99 99 99 96 93 89 85 84 83 84 83 82 79 75 77 79 80 82 83 90 97 96 99 101 98 95 97 105 115 119 120 118 118 116 115 114 112 109 105 98 77 56
126 123 122 121 119 120 125 127 123 118 112 110 111 110 110 112 114 116 114 112 113 115 117 118 119 118 115 113 111 110 106 100 96 96 98 99 100 99 97 96 96 97 98 98 98 97 96 94 91 87 85 84 83 83 83 81 76 73 76 77 77 80 92 114 114 104 99 99 97 93 97 108 119 122 125 129 126 125 125 120 110 105 94 58 27
129 125 125 124 125 123 126 127 120 116 112 111 111 112 113 112 113 114 114 114 116 117 117 118 117 115 114 113 114 112 108 103 101 103 107 109 108 105 101 99 97 96 95 94 94 93 91 89 88 86 83 81 80 80 79 77 74 71 73 75 76 79 86 101 117 117 111 107 102 97 95 98 107 118 129 137 135 137 139 137 130 118 89 31 1
136 128 128 128 127 125 127 126 119 115 113 112 112 113 114 112 111 112 115 118 119 119 118 118 117 115 115 117 118 115 111 109 110 113 114 113 110 106 102 99 97 94 92 90 88 87 86 84 83 82 80 79 78 77 77 76 73 68 67 71 76 81 86 94 109 126 131 124 112 103 100 98 99 109 125 145 147 151 155 152 146 137 117 329 330
143 133 133 132 128 127 130 124 118 116 114 113 113 115 114 112 112 113 115 119 120 119 119 119 117 117 118 120 119 116 115 115 116 116 114 112 108 104 100 96 92 89 86 84 83 82 81 79 76 75 75 76 76 74 74 74 74 69 63 64 70 76 84 94 103 117 134 138 130 120 113 105 102 106 111 123 140 158 166 160 151 157 235 295 315
148 141 138 135 132 131 126 119 115 116 115 114 116 117 115 114 114 113 115 119 119 118 119 119 117 117 119 120 120 118 117 117 115 113 112 110 105 101 95 89 84 81 80 80 79 78 78 76 73 70 68 68 70 71 70 71 74 72 66 63 67 70 77 86 93 101 112 124 132 138 134 119 112 112 108 105 115 138 159 162 159 175 238 287 313
154 148 143 138 134 129 122 116 114 115 115 116 120 120 117 117 116 115 117 119 118 118 119 117 116 117 119 120 119 119 118 116 113 112 110 107 103 98 92 86 81 79 79 77 77 76 75 73 71 69 68 66 66 66 64 66 70 74 72 69 72 74 77 81 84 87 92 101 113 127 131 125 123 121 116 111 105 108 118 133 141 139 103 345 340
158 153 145 141 132 126 121 116 116 115 117 119 123 123 121 120 117 117 119 120 119 119 118 117 118 120 121 121 121 120 118 116 113 111 109 105 100 95 91 86 82 81 79 77 75 72 70 69 67 65 65 65 66 65 63 60 63 71 74 71 75 79 81 82 83 83 83 87 96 106 114 118 120 119 123 123 115 104 98 98 100 94 73 48 29
159 157 149 141 132 127 123 118 117 116 118 123 126 125 124 122 119 119 120 120 119 119 120 120 121 123 123 123 122 121 118 115 112 109 106 101 96 92 89 86 84 83 80 78 75 70 66 66 65 64 61 60 63 65 66 63 59 65 71 70 73 79 80 80 81 82 83 83 87 94 102 108 111 113 124 130 126 116 100 91 84 79 73 62 51
160 161 154 145 134 130 126 121 119 119 122 126 129 128 127 123 120 120 121 121 121 121 122 123 123 124 123 123 122 120 117 113 110 106 102 98 94 91 87 84 82 80 76 73 70 67 63 64 66 66 63 59 60 64 68 70 65 63 69 68 68 74 75 76 78 81 83 83 83 87 94 102 108 109 114 122 125 122 111 98 89 81 73 66 58
164 162 158 150 140 133 129 126 123 122 126 130 131 132 129 125 122 122 122 123 124 125 126 126 126 125 124 123 121 118 114 109 104 100 98 95 91 89 87 83 77 73 69 66 66 65 63 64 66 69 68 63 60 63 68 74 73 67 69 71 70 71 74 76 79 82 82 81 81 82 86 93 102 106 106 108 114 119 118 114 106 95 82 71 58
168 162 160 156 145 138 133 130 127 125 129 134 135 135 132 127 125 123 124 127 127 128 130 130 130 129 128 123 119 115 109 104 99 96 93 90 88 85 82 78 75 73 69 65 66 65 63 62 63 69 73 72 66 64 67 74 78 74 70 73 74 73 74 77 78 80 81 80 80 79 81 85 92 100 103 104 108 114 118 118 114 103 92 78 60
172 162 160 162 150 141 137 132 129 128 131 137 139 137 134 130 127 126 127 130 130 130 129 129 127 127 126 120 116 111 105 100 93 91 90 87 86 83 79 76 74 75 71 69 67 61 60 62 63 66 71 74 72 67 69 72 75 75 69 68 73 75 74 76 76 75 76 77 77 77 78 80 85 91 95 98 101 106 108 107 103 98 92 82 67
173 163 159 162 155 145 141 136 132 131 135 142 144 140 135 132 129 128 129 131 132 131 129 125 124 124 122 117 114 108 102 97 90 86 85 82 80 77 75 74 71 70 68 69 68 59 58 64 65 66 69 71 71 68 70 73 73 76 74 68 72 75 73 73 73 70 71 73 74 75 76 76 78 83 87 89 93 94 95 96 92 89 84 75 65
178 166 160 163 160 151 145 140 136 137 141 146 147 143 137 133 132 131 131 132 132 130 128 127 125 123 119 115 112 104 97 93 87 83 80 77 75 72 69 68 65 63 64 69 68 61 62 66 67 65 66 70 70 67 70 74 77 82 80 70 68 73 73 72 72 69 69 71 72 72 72 70 70 73 78 80 83 84 83 82 79 77 72 64 57
184 169 165 166 161 156 152 145 141 142 147 151 150 144 138 135 134 133 132 132 131 128 127 127 123 117 113 110 104 99 94 88 83 80 76 73 71 70 68 65 62 59 61 65 63 59 60 63 65 64 67 71 69 64 66 71 74 79 79 71 65 71 73 70 71 72 71 73 73 74 72 69 66 64 69 71 70 72 73 71 68 66 64 61 55
185 174 171 168 164 163 160 150 146 148 152 155 151 145 141 137 135 134 135 134 130 128 126 124 120 114 111 107 102 100 97 90 84 80 77 74 72 70 68 65 63 58 56 58 56 55 55 58 61 62 67 67 64 61 66 69 68 73 79 77 66 68 75 72 72 74 73 72 72 74 75 72 69 63 63 65 64 63 64 65 64 62 63 62 58
183 178 179 173 168 169 166 157 151 152 157 157 153 148 144 140 138 138 138 137 133 128 124 120 116 113 111 106 104 103 98 92 87 85 82 79 75 70 64 60 58 55 53 51 50 50 50 53 55 56 60 61 62 63 65 68 69 72 80 83 75 67 77 78 75 74 71 69 70 73 75 74 74 71 66 63 63 61 61 63 64 63 63 63 61
188 179 184 181 172 174 170 161 156 156 160 159 155 151 148 144 142 143 143 141 136 129 125 120 115 111 108 105 103 102 97 92 90 89 86 80 75 69 62 57 52 49 47 43 42 42 42 47 49 51 54 56 60 63 63 64 67 74 82 90 90 78 77 81 77 74 71 66 66 69 71 71 72 74 72 67 63 62 62 64 65 64 62 60 58
194 182 187 185 176 177 172 164 160 160 162 161 158 155 150 147 147 148 147 143 138 132 129 124 118 114 110 105 101 99 97 94 92 89 84 79 74 68 61 56 52 47 44 39 37 37 37 40 43 48 49 49 57 60 62 61 60 68 77 88 93 87 79 85 81 76 75 70 65 64 67 67 68 70 73 72 69 65 65 66 65 63 60 57 54
196 185 185 184 181 180 173 167 164 162 164 163 160 157 153 150 150 151 148 144 139 135 134 130 123 119 114 107 102 101 100 97 93 87 82 78 74 71 63 56 51 47 41 34 34 37 38 40 41 47 46 43 52 57 59 61 57 56 63 74 87 92 84 87 90 82 78 78 70 64 63 64 65 68 70 72 73 71 70 68 65 62 59 57 55
197 188 183 182 181 182 177 170 166 165 166 166 162 159 156 153 153 154 151 145 140 138 138 135 128 124 118 111 107 104 101 96 92 87 82 76 72 71 65 58 53 48 41 32 34 39 44 50 49 49 45 38 40 45 48 55 57 54 55 60 73 87 85 73 81 82 76 76 75 70 66 66 66 66 66 68 70 72 70 66 63 60 57 56 55
199 189 184 183 181 183 180 172 168 167 167 167 163 160 158 156 156 156 154 148 143 139 139 139 134 129 121 115 111 106 100 94 90 86 80 73 70 70 65 59 54 48 41 34 37 42 48 53 52 50 46 38 34 35 35 37 46 55 58 57 61 73 80 78 73 68 65 65 74 76 71 73 73 68 65 65 66 68 67 65 62 58 56 54 54
202 191 186 184 181 183 182 175 169 169 169 167 164 162 159 158 158 159 157 151 145 141 141 144 141 133 125 120 116 110 103 97 92 88 82 75 71 70 67 61 53 44 38 36 38 40 47 52 53 53 50 44 39 38 39 39 44 53 61 61 59 58 61 71 76 72 66 51 60 71 69 71 74 72 69 65 63 62 60 61 58 55 54 53 54
205 194 189 186 182 183 182 177 171 170 170 167 165 164 161 160 162 163 161 155 151 148 148 150 147 139 131 127 123 116 111 106 99 91 84 77 71 69 67 60 49 39 36 38 40 41 49 56 58 57 55 51 47 43 44 48 53 58 63 61 59 56 51 56 64 72 81 72 58 65 63 58 65 74 77 72 68 64 59 56 53 50 49 50 52
208 196 190 188 182 182 183 178 171 170 171 169 167 165 162 162 165 168 165 161 161 157 156 155 151 145 138 133 130 126 121 113 102 92 84 78 74 70 64 57 46 38 38 43 46 47 54 61 62 61 59 55 52 49 47 50 57 63 68 68 64 62 57 55 57 62 73 81 76 67 63 50 47 59 66 66 65 65 62 56 50 48 44 46 50
214 199 190 188 184 180 181 179 173 172 173 170 169 168 167 167 170 174 171 166 167 164 162 162 156 150 144 140 138 135 128 114 101 92 87 81 76 70 64 58 50 43 44 49 51 54 61 67 67 65 61 57 54 52 51 53 60 64 68 71 69 67 63 59 60 63 66 69 67 65 67 66 52 47 45 45 47 48 52 54 51 48 43 43 46
219 205 193 189 185 181 179 179 175 173 176 175 173 173 174 174 175 177 174 169 170 169 167 167 162 155 150 147 146 142 131 115 102 93 89 85 79 72 67 63 56 47 47 52 55 58 63 69 70 67 62 59 56 54 53 54 59 63 64 66 68 68 66 62 62 67 67 65 64 64 67 73 72 61 51 50 51 47 51 55 52 48 45 42 42
221 209 199 193 187 183 179 177 175 174 179 180 177 178 177 176 176 176 174 170 171 171 169 171 167 159 156 154 152 147 133 118 108 98 89 83 80 76 69 63 57 51 48 52 59 62 64 68 68 66 62 58 56 54 52 53 56 60 61 61 63 65 65 63 61 64 68 69 73 75 69 68 73 71 67 66 64 59 59 63 61 57 55 49 43
220 211 203 197 188 184 181 178 177 176 180 183 182 182 181 175 172 175 175 170 172 173 171 174 172 164 162 159 155 149 137 124 115 105 91 78 75 75 71 60 53 53 51 52 61 67 68 68 65 62 60 56 52 51 50 49 51 55 57 57 58 61 63 63 62 64 66 67 74 84 84 78 77 77 73 70 70 68 65 66 68 67 65 58 48
220 214 207 202 192 185 182 181 181 180 181 185 185 184 183 176 171 175 177 175 175 176 176 179 175 169 166 161 157 153 143 132 123 111 96 82 71 68 66 56 47 49 52 53 59 66 72 73 68 63 60 52 43 41 42 43 45 49 52 53 55 57 59 59 61 64 66 66 66 73 78 78 78 77 74 71 72 74 73 72 72 66 63 58 47
217 214 208 205 197 188 184 185 185 184 184 186 185 184 184 178 174 178 180 182 183 182 183 182 177 172 167 160 158 157 150 140 132 119 104 90 77 68 63 58 49 45 47 50 54 62 69 72 70 66 58 47 37 35 36 35 37 42 44 46 49 52 54 54 56 58 61 65 64 63 65 67 69 71 73 73 71 69 67 64 62 57 52 47 38
216 213 208 205 201 193 187 189 189 188 188 187 185 185 186 181 179 183 187 189 190 188 187 184 177 171 166 163 163 164 160 154 144 132 117 101 86 78 70 65 59 47 44 47 49 56 64 66 63 60 53 45 40 39 40 37 36 38 38 39 41 45 48 49 50 51 52 54 58 60 58 57 60 62 63 65 63 61 55 43 40 42 39 34 26
215 210 208 206 205 198 192 192 193 193 192 189 186 186 188 186 185 189 194 196 194 190 188 185 179 175 172 172 172 172 171 165 154 141 128 114 98 88 80 70 63 53 47 45 43 47 58 62 59 53 50 49 47 45 44 43 43 44 42 41 40 41 41 42 42 43 44 44 45 51 51 47 51 53 50 46 46 51 49 36 30 21 13 12 11
211 207 207 207 207 203 197 195 197 198 195 192 190 190 191 191 191 194 199 200 195 190 189 187 185 183 182 181 180 179 177 172 159 145 137 129 115 100 87 75 67 57 51 48 43 41 48 57 60 56 55 54 51 46 43 42 44 46 47 46 46 44 42 40 39 39 38 36 35 37 38 34 35 42 47 41 31 36 36 26 18 5 358 358 360
206 205 205 206 207 206 203 199 200 201 199 196 195 195 196 196 198 200 202 201 195 191 191 193 193 192 191 188 185 183 178 173 164 155 152 146 127 105 85 75 69 59 51 49 48 46 44 49 57 60 63 61 52 44 41 40 40 41 43 46 48 48 46 44 43 43 42 40 38 35 30 26 20 15 20 17 4 1 3 354 348 347 346 348 353
204 205 204 205 207 208 206 203 203 204 201 200 201 201 202 202 204 207 206 203 198 195 196 200 203 201 199 194 187 182 179 176 173 173 171 158 139 105 72 57 54 54 49 39 41 49 48 46 51 60 68 68 55 43 36 35 35 37 38 42 48 50 50 49 47 47 46 45 44 41 36 33 28 16 10 9 356 342 336 332 335 340 339 339 343
208 206 206 208 210 210 208 206 205 206 204 202 203 206 208 208 210 211 210 206 201 198 201 206 210 207 204 199 188 180 181 185 183 185 189 173 155 120 57 38 29 37 43 36 29 39 49 50 51 61 69 66 56 43 34 29 29 31 34 38 46 51 51 51 50 47 45 42 39 38 33 32 32 24 17 16 6 352 348 349 351 347 342 338 333